Regional Weather Roundup
Issued by NWS

Home | Current Version | Previous Version | Graphics & Text | Print | Product List | Glossary On
Versions: 1 2 3 4 5 6 7 8 9 10 11 12 13 14 15 16 17 18 19 20 21 22 23 24 25 26 27 28 29 30 31 32 33 34 35 36 37 38 39 40 41 42 43 44 45 46 47 48 49 50
002
ASUS43 KTOP 252259
RWRKS

WEATHER ROUNDUP FOR KANSAS
NATIONAL WEATHER SERVICE GOODLAND KS
600 PM CDT SUN SEP 25 2016

NOTE:  "FAIR" INDICATES FEW OR NO CLOUDS BELOW 12,000 FEET WITH NO
SIGNIFICANT WEATHER AND/OR OBSTRUCTIONS TO VISIBILITY.

KSZ001>006-013>018-027>032-041>047-260000-
NORTHWEST KANSAS

CITY           SKY/WX    TMP DP  RH WIND       PRES   REMARKS
GOODLAND       SUNNY     69  33  26 N16G24    30.32R
HAYS           SUNNY     73  36  25 N14       30.23R
HILL CITY      SUNNY     73  30  20 N13       30.25R
RUSSELL        SUNNY     73  38  27 N16       30.21R
$$

KSZ061>065-074>080-084>089-260000-
SOUTHWEST KANSAS

CITY           SKY/WX    TMP DP  RH WIND       PRES   REMARKS
DODGE CITY     SUNNY     75  34  22 N15       30.25R
ELKHART          N/A     73  35  25 MISG        N/A
GARDEN CITY    SUNNY     74  30  19 N14       30.27R
GREAT BEND     SUNNY     73  43  33 N17       30.22R
LIBERAL        SUNNY     73  36  25 N16       30.28R
$$

KSZ066>073-081>083-090>101-260000-
SOUTHEAST KANSAS

CITY           SKY/WX    TMP DP  RH WIND       PRES   REMARKS
CHANUTE        CLOUDY    64  58  80 CALM      30.15R
COFFEYVILLE    CLOUDY    62  59  90 N7        30.15R
HUTCHINSON     CLOUDY    72  48  42 N12       30.20R
MEDICINE LODGE   N/A     69  50  50 N7          N/A
NEWTON         CLOUDY   N/A N/A N/A NW5       30.20R
PARSONS        CLOUDY    62  57  83 N5        30.16S
WICHITA INTL   CLOUDY    68  53  58 N9        30.18S
WICHITA JABRA  PTSUNNY   67  57  70 N5        30.18S
WINFIELD       CLOUDY    65  55  70 N7        30.19R
$$

KSZ007>012-019>026-033>040-048>060-102>105-260000-
NORTHEAST KANSAS

CITY           SKY/WX    TMP DP  RH WIND       PRES   REMARKS
CONCORDIA      SUNNY     72  41  32 NW16G24   30.19R
EMPORIA        CLOUDY    66  55  67 N3        30.16R
LAWRENCE       CLOUDY    66  57  72 VRB6      30.14R
MANHATTAN      PTSUNNY   74  50  42 VRB7      30.15S
OLATHE IND     CLOUDY    64  57  78 NW8       30.15R
OLATHE EXE     CLOUDY    63  56  78 NW6       30.14R
SALINA         MOSUNNY   74  47  38 N13       30.19R
TOPEKA BILLARD CLOUDY    68  55  63 W3        30.14S HAZE
TOPEKA FORBES  CLOUDY    68  55  63 NW5       30.15R
$$




USA.gov is the U.S. government's official web portal to all federal, state and local government web resources and services.